Location: Big Prairie
(40.6673°N, 82.0952°W)
Time: 17:22:58
(UTC+00:00)

Cosmos 841 Rocket - Pass Details

Date: 03 July 2022
Orbit: 745 x 772 km, 74.0° (Epoch: 18 August)

Event Time Altitude Azimuth Distance (km) Brightness Sun altitude
Exits shadow 07:08:10 49° 161° (SSE) 962 3.7 -22.6°
Maximum altitude 07:09:21 64° 106° (ESE) 828 3.6 -22.5°
Drops below altitude 10° 07:14:27 10° 25° (NNE) 2,280 7.1 -22.1°
Sets 07:16:50 0° 23° (NNE) 3,212 8.3 -21.9°
